Rincon (215, 217, 682) Station Data

Red Flag Warning: No
Fire Weather Zone: 250
SDGE Region: North East
Lat/Lon: 33.288/-116.956

Observations

Time Wind Speed/Gust Temp(F) RH Fuel Moist Fuel Temp(F) Dewpt(F) Tmax(F) Tmin(F) Accum Precip 10-min Precip SL Press(mb)
6/22 5:00am 0 0 G 0 57° 100% - - 57° 65.2° 56.5° - - 944.0
6/22 4:50am 109 1 G 2 57° 100% - - 57° 65.2° 56.5° - - 943.0
6/22 4:40am 104 2 G 3 57° 100% - - 57° 65.2° 56.5° - - 942.0
6/22 4:30am 83 1 G 3 57° 100% - - 57° 65.2° 56.5° - - 942.0
6/22 4:20am 152 1 G 1 57° 100% - - 57° 65.2° 56.5° - - 941.0
6/22 4:10am 126 1 G 2 57° 100% - - 57° 65.2° 56.8° - - 941.0
6/22 4:00am 159 1 G 2 58° 100% - - 58° 65.2° 57.2° - - 937.0
6/22 3:50am 90 1 G 2 59° 100% - - 59° 65.2° 57.9° - - 937.0
6/22 3:40am 0 0 G 0 58° 100% - - 59° 65.2° 57.9° - - 936.0
6/22 3:30am 257 0 G 1 58° 99% - - 58° 65.2° 57.9° - - 935.0
6/22 3:20am 171 1 G 2 59° 97% - - 58° 65.2° 58.3° - - 935.0
6/22 3:10am 79 3 G 3 60° 97% - - 59° 65.2° 59.2° - - 935.0
6/22 3:00am 104 2 G 3 60° 92% - - 57° 65.2° 59.2° - - 932.0
6/22 2:50am 209 0 G 2 60° 88% - - 56° 65.2° 59.3° - - 931.0
6/22 2:40am 16 0 G 1 60° 89% - - 57° 65.2° 59.5° - - 931.0
6/22 2:30am 187 0 G 2 61° 87% - - 57° 65.2° 59.8° - - 931.0
6/22 2:20am 91 1 G 2 62° 88% - - 58° 65.2° 61.2° - - 931.0
6/22 2:10am 111 0 G 1 62° 85% - - 57° 65.2° 61.2° - - 930.0
6/22 2:00am 324 0 G 1 62° 83% - - 57° 65.2° 61.6° - - 929.0
6/22 1:50am 344 1 G 1 62° 82% - - 57° 65.2° 61.9° - - 929.0
6/22 1:40am 64 1 G 2 62° 85% - - 58° 65.2° 62.1° - - 930.0
6/22 1:30am 86 1 G 2 63° 84% - - 58° 65.2° 62.2° - - 930.0
6/22 1:20am 82 1 G 2 62° 82% - - 57° 65.2° 62.2° - - 929.0
6/22 1:10am 45 1 G 2 63° 85% - - 58° 65.2° 62.2° - - 930.0
6/22 1:00am 217 0 G 1 63° 83% - - 58° 65.2° 62.5° - - 930.0
6/22 12:50am 164 1 G 1 63° 83% - - 58° 65.2° 63.1° - - 930.0
6/22 12:40am 115 1 G 2 64° 83% - - 58° 65.2° 63.5° - - 930.0
6/22 12:30am 131 1 G 2 64° 82% - - 58° 65.2° 63.7° - - 929.0
6/22 12:20am 141 1 G 2 64° 80% - - 58° 65.2° 63.7° - - 928.0
6/22 12:10am 86 1 G 3 65° 78% - - 57° 65.2° 63.9° - - 928.0
6/22 12:00am 89 1 G 3 66° 76% - - 58° 98.4° 62.2° - - 927.0
6/21 11:50pm 211 1 G 1 66° 73% - - 57° 98.4° 62.2° - - 926.0
6/21 11:40pm 16 1 G 3 67° 70% - - 57° 98.4° 62.2° - - 925.0
6/21 11:30pm 44 2 G 2 68° 70% - - 58° 98.4° 62.2° - - 925.0
6/21 11:20pm 16 1 G 2 68° 71% - - 58° 98.4° 62.2° - - 925.0
6/21 11:10pm 124 0 G 1 68° 70% - - 58° 98.4° 62.2° - - 925.0
6/21 11:00pm 88 2 G 3 69° 68% - - 58° 98.4° 62.2° - - 924.0
6/21 10:50pm 87 2 G 2 69° 67% - - 58° 98.4° 62.2° - - 924.0
6/21 10:40pm 105 2 G 3 69° 66% - - 58° 98.4° 62.2° - - 924.0
6/21 10:30pm 77 1 G 2 69° 66% - - 58° 98.4° 62.2° - - 924.0
6/21 10:20pm 103 1 G 1 69° 66% - - 57° 98.4° 62.2° - - 924.0
6/21 10:10pm 175 0 G 1 70° 65% - - 57° 98.4° 62.2° - - 923.0
6/21 10:00pm 167 1 G 2 71° 63% - - 57° 98.4° 62.2° - - 923.0
6/21 9:50pm 91 1 G 3 71° 62% - - 57° 98.4° 62.2° - - 923.0
6/21 9:40pm 42 2 G 3 71° 62% - - 58° 98.4° 62.2° - - 923.0
6/21 9:30pm 100 1 G 2 72° 61% - - 57° 98.4° 62.2° - - 922.0
6/21 9:20pm 92 2 G 3 72° 60% - - 57° 98.4° 62.2° - - 922.0
6/21 9:10pm 85 2 G 3 72° 60% - - 58° 98.4° 62.2° - - 922.0
6/21 9:00pm 118 1 G 2 72° 60% - - 58° 98.4° 62.2° - - 922.0
6/21 8:50pm 212 1 G 3 74° 57% - - 58° 98.4° 62.2° - - 921.0
6/21 8:40pm 283 1 G 6 75° 55% - - 58° 98.4° 62.2° - - 921.0
6/21 8:30pm 300 2 G 4 76° 53% - - 58° 98.4° 62.2° - - 921.0
6/21 8:20pm 298 2 G 4 77° 52% - - 58° 98.4° 62.2° - - 920.0
6/21 8:10pm 288 3 G 7 78° 50% - - 58° 98.4° 62.2° - - 920.0
6/21 8:00pm 309 3 G 7 79° 48% - - 58° 98.4° 62.2° - - 919.0
6/21 7:50pm 297 2 G 6 81° 46% - - 58° 98.4° 62.2° - - 919.0
6/21 7:40pm 285 4 G 6 82° 44% - - 58° 98.4° 62.2° - - 918.0
6/21 7:30pm 306 5 G 7 83° 42% - - 58° 98.4° 62.2° - - 918.0
6/21 7:20pm 315 4 G 7 85° 39% - - 57° 98.4° 62.2° - - 917.0
6/21 7:10pm 312 4 G 7 86° 37% - - 57° 98.4° 62.2° - - 917.0
6/21 7:00pm 311 5 G 9 87° 35% - - 56° 98.4° 62.2° - - 917.0
6/21 6:50pm 308 5 G 8 88° 34% - - 56° 98.4° 62.2° - - 916.0
6/21 6:40pm 305 5 G 9 88° 33% - - 56° 98.4° 62.2° - - 916.0
6/21 6:30pm 310 5 G 8 89° 32% - - 55° 98.4° 62.2° - - 916.0
6/21 6:20pm 308 6 G 10 90° 31% - - 55° 98.4° 62.2° - - 916.0
6/21 6:10pm 303 6 G 10 90° 30% - - 55° 98.4° 62.2° - - 916.0
6/21 6:00pm 308 5 G 11 91° 30% - - 55° 98.4° 62.2° - - 916.0
6/21 5:50pm 311 7 G 11 91° 30% - - 55° 98.4° 62.2° - - 916.0
6/21 5:40pm 313 7 G 11 92° 29% - - 55° 98.4° 62.2° - - 916.0
6/21 5:30pm 308 6 G 12 92° 29% - - 55° 98.4° 62.2° - - 916.0
6/21 5:20pm 314 6 G 11 92° 29% - - 55° 98.4° 62.2° - - 916.0
6/21 5:10pm 301 7 G 14 92° 28% - - 55° 98.4° 62.2° - - 916.0
6/21 5:00pm 313 9 G 13 93° 28% - - 54° 98.4° 62.2° - - 915.0
6/21 4:50pm 306 8 G 14 93° 27% - - 54° 98.4° 62.2° - - 915.0
6/21 4:40pm 305 7 G 12 94° 26% - - 54° 98.4° 62.2° - - 915.0
6/21 4:30pm 303 7 G 11 94° 26% - - 54° 98.4° 62.2° - - 915.0
6/21 4:20pm 315 7 G 11 94° 26% - - 54° 98.4° 62.2° - - 915.0
6/21 4:10pm 318 8 G 13 94° 27% - - 54° 98.4° 62.2° - - 915.0
6/21 4:00pm 311 8 G 16 94° 27% - - 55° 98.4° 62.2° - - 915.0
6/21 3:50pm 305 8 G 14 94° 26% - - 55° 98.4° 62.2° - - 915.0
6/21 3:40pm 308 9 G 14 95° 26% - - 55° 98.4° 62.2° - - 915.0
6/21 3:30pm 321 9 G 14 95° 26% - - 54° 98.4° 62.2° - - 915.0
6/21 3:20pm 304 8 G 14 95° 25% - - 54° 98.4° 62.2° - - 915.0
6/21 3:10pm 323 7 G 13 96° 24% - - 54° 98.4° 62.2° - - 915.0
6/21 3:00pm 314 8 G 15 96° 24% - - 54° 98.4° 62.2° - - 915.0
6/21 2:50pm 310 8 G 15 96° 24% - - 54° 98.4° 62.2° - - 915.0
6/21 2:40pm 314 9 G 14 96° 25% - - 55° 98.4° 62.2° - - 916.0
6/21 2:30pm 326 7 G 13 96° 26% - - 55° 98.4° 62.2° - - 916.0
6/21 2:20pm 316 7 G 15 96° 26% - - 56° 98.4° 62.2° - - 916.0
6/21 2:10pm 309 9 G 16 97° 27% - - 57° 98.4° 62.2° - - 916.0
6/21 2:00pm 324 8 G 13 97° 27% - - 57° 98.4° 62.2° - - 916.0
6/21 1:50pm 317 7 G 11 97° 26% - - 57° 98.4° 62.2° - - 916.0
6/21 1:40pm 317 7 G 13 97° 26% - - 56° 98.4° 62.2° - - 916.0
6/21 1:30pm 329 8 G 13 98° 25% - - 56° 98.4° 62.2° - - 915.0
6/21 1:20pm 326 7 G 14 97° 25% - - 55° 98.4° 62.2° - - 915.0
6/21 1:10pm 307 7 G 11 97° 24% - - 55° 98.3° 62.2° - - 915.0
6/21 1:00pm 305 7 G 12 97° 24% - - 54° 98.3° 62.2° - - 915.0
6/21 12:50pm 318 5 G 10 97° 24% - - 55° 98.3° 62.2° - - 915.0
6/21 12:40pm 313 7 G 11 97° 24% - - 54° 97.8° 62.2° - - 915.0
6/21 12:30pm 310 6 G 10 97° 24% - - 54° 97.2° 62.2° - - 915.0
6/21 12:20pm 325 6 G 11 96° 25% - - 54° 96.8° 62.2° - - 915.0
6/21 12:10pm 330 7 G 11 95° 25% - - 54° 96° 62.2° - - 914.0
6/21 12:00pm 308 6 G 10 95° 25% - - 53° 95.7° 62.2° - - 914.0
6/21 11:50am 307 7 G 11 95° 24% - - 52° 94.9° 62.2° - - 914.0
6/21 11:40am 307 6 G 11 94° 24% - - 52° 94.4° 62.2° - - 913.0
6/21 11:30am 303 6 G 11 93° 25% - - 53° 93.8° 62.2° - - 914.0
6/21 11:20am 307 7 G 11 92° 26% - - 52° 93° 62.2° - - 914.0
6/21 11:10am 308 7 G 11 92° 25% - - 51° 92.5° 62.2° - - 913.0
6/21 11:00am 307 7 G 10 92° 25% - - 51° 92.3° 62.2° - - 913.0
6/21 10:50am 301 5 G 8 91° 26% - - 52° 92° 62.2° - - 913.0
6/21 10:40am 294 5 G 8 90° 28% - - 52° 90.6° 62.2° - - 914.0
6/21 10:30am 285 5 G 8 89° 29% - - 53° 89.6° 62.2° - - 914.0
6/21 10:20am 287 4 G 7 88° 30% - - 53° 89° 62.2° - - 914.0
6/21 10:10am 282 3 G 6 88° 27% - - 50° 88.1° 62.2° - - 913.0
6/21 10:00am 267 3 G 5 87° 28% - - 50° 87.6° 62.2° - - 913.0
6/21 9:50am 274 3 G 5 86° 27% - - 48° 86.7° 62.2° - - 912.0
6/21 9:40am 259 2 G 4 85° 29% - - 49° 86° 62.2° - - 913.0
6/21 9:30am 196 1 G 5 85° 30% - - 50° 86° 62.2° - - 913.0
6/21 9:20am 98 1 G 3 84° 31% - - 50° 85.2° 62.2° - - 913.0
6/21 9:10am 214 1 G 3 81° 33% - - 49° 82.4° 62.2° - - 913.0
6/21 9:00am 242 1 G 2 80° 33% - - 48° 80.5° 62.2° - - 913.0
6/21 8:50am 192 1 G 3 79° 40% - - 53° 79.6° 62.2° - - 916.0
6/21 8:40am 195 2 G 3 76° 47% - - 55° 77.7° 62.2° - - 918.0
6/21 8:30am 210 2 G 3 75° 49% - - 55° 75.8° 62.2° - - 918.0
6/21 8:20am 194 1 G 2 74° 53% - - 56° 75.4° 62.2° - - 920.0
6/21 8:10am 200 1 G 3 72° 59% - - 57° 72.8° 62.2° - - 922.0
6/21 8:00am 235 1 G 2 71° 61% - - 57° 72.3° 62.2° - - 922.0
6/21 7:50am 281 1 G 2 70° 63% - - 57° 71.3° 62.2° - - 923.0
6/21 7:40am 227 1 G 2 70° 61% - - 56° 71.3° 62.2° - - 922.0
6/21 7:30am 237 0 G 2 70° 57% - - 54° 71.3° 62.2° - - 920.0
6/21 7:20am 182 0 G 1 71° 54% - - 53° 71.3° 62.2° - - 919.0
6/21 7:10am 129 0 G 1 69° 58% - - 54° 70.5° 62.2° - - 920.0
6/21 7:00am 179 0 G 1 67° 57% - - 51° 70.5° 62.2° - - 919.0
6/21 6:50am 80 0 G 1 65° 56% - - 49° 70.5° 62.2° - - 919.0
6/21 6:40am 47 0 G 1 65° 58% - - 49° 70.5° 62.2° - - 919.0
6/21 6:30am 56 2 G 2 64° 60% - - 50° 70.5° 62.2° - - 920.0
6/21 6:20am 13 1 G 2 63° 62% - - 49° 70.5° 62.2° - - 921.0
6/21 6:10am 360 1 G 1 63° 64% - - 50° 70.5° 62.2° - - 921.0
6/21 6:00am 36 1 G 2 63° 59% - - 48° 70.5° 62.2° - - 919.0
6/21 5:50am 29 2 G 4 63° 61% - - 49° 70.5° 62.2° - - 920.0
6/21 5:40am 36 2 G 4 63° 61% - - 50° 70.5° 62.2° - - 920.0
6/21 5:30am 79 2 G 3 63° 63% - - 50° 70.5° 62.2° - - 921.0
6/21 5:20am 79 2 G 3 64° 60% - - 50° 70.5° 62.3° - - 920.0
6/21 5:10am 77 2 G 3 63° 68% - - 52° 70.5° 62.3° - - 923.0
6/21 5:00am 100 1 G 3 63° 74% - - 54° 70.5° 62.5° - - 925.0
6/21 4:50am 48 2 G 3 63° 64% - - 51° 70.5° 62.5° - - 921.0
6/21 4:40am 45 2 G 3 63° 66% - - 52° 70.5° 62.6° - - 922.0
6/21 4:30am 39 1 G 4 64° 62% - - 51° 70.5° 62.8° - - 921.0
6/21 4:20am 69 2 G 4 65° 66% - - 53° 70.5° 63.4° - - 923.0
6/21 4:10am 73 2 G 3 64° 68% - - 53° 70.5° 63.4° - - 923.0
6/21 4:00am 58 1 G 3 64° 66% - - 52° 70.5° 63.4° - - 922.0
6/21 3:50am 50 3 G 4 65° 65% - - 54° 70.5° 64° - - 923.0
6/21 3:40am 21 1 G 3 64° 74% - - 56° 70.5° 64° - - 926.0
6/21 3:30am 344 1 G 2 65° 69% - - 55° 70.5° 64.2° - - 924.0
6/21 3:20am 38 2 G 4 66° 62% - - 53° 70.5° 65.7° - - 921.0
6/21 3:10am 53 3 G 4 67° 63% - - 54° 70.5° 65.7° - - 922.0
6/21 3:00am 51 2 G 4 67° 63% - - 54° 70.5° 65.7° - - 922.0
6/21 2:50am 339 1 G 2 67° 64% - - 55° 70.5° 65.7° - - 922.0
6/21 2:40am 41 2 G 3 67° 60% - - 53° 70.5° 65.7° - - 921.0
6/21 2:30am 65 2 G 3 67° 61% - - 53° 70.5° 65.7° - - 921.0
6/21 2:20am 49 2 G 4 68° 59% - - 53° 70.5° 66.7° - - 921.0
6/21 2:10am 38 2 G 4 67° 62% - - 54° 70.5° 66.7° - - 922.0
6/21 2:00am 65 1 G 3 68° 59% - - 53° 70.5° 67.6° - - 921.0
6/21 1:50am 51 3 G 5 69° 59% - - 54° 70.5° 68° - - 921.0
6/21 1:40am 53 4 G 5 69° 61% - - 55° 70.5° 68° - - 922.0
6/21 1:30am 56 3 G 5 69° 65% - - 56° 70.5° 68° - - 923.0
6/21 1:20am 97 2 G 3 69° 67% - - 57° 70.5° 68° - - 924.0
6/21 1:10am 71 3 G 4 69° 66% - - 57° 70.5° 68° - - 924.0
6/21 1:00am 63 4 G 5 69° 65% - - 56° 70.5° 68° - - 923.0
6/21 12:50am 55 2 G 3 69° 67% - - 58° 70.5° 68.4° - - 925.0
6/21 12:40am 103 2 G 3 69° 69% - - 58° 70.5° 68.5° - - 925.0
6/21 12:30am 78 3 G 4 69° 67% - - 57° 70.5° 68.5° - - 924.0
6/21 12:20am 48 4 G 5 69° 64% - - 57° 70.5° 68.7° - - 923.0
6/21 12:10am 61 2 G 4 70° 66% - - 58° 70.5° 69.5° - - 924.0
6/21 12:00am 65 2 G 2 70° 67% - - 58° 100.4° 63.6° - - 924.0
6/20 11:50pm 102 2 G 3 69° 67% - - 58° 100.4° 63.6° - - 924.0
6/20 11:40pm 78 2 G 3 70° 64% - - 57° 100.4° 63.6° - - 923.0
6/20 11:30pm 77 1 G 3 70° 67% - - 58° 100.4° 63.6° - - 924.0
6/20 11:20pm 356 0 G 1 70° 65% - - 58° 100.4° 63.6° - - 924.0
6/20 11:10pm 59 1 G 3 71° 62% - - 57° 100.4° 63.6° - - 923.0
6/20 11:00pm 46 2 G 3 71° 63% - - 58° 100.4° 63.6° - - 923.0
6/20 10:50pm 91 0 G 1 71° 63% - - 58° 100.4° 63.6° - - 923.0
6/20 10:40pm 0 0 G 0 72° 60% - - 58° 100.4° 63.6° - - 922.0
6/20 10:30pm 120 1 G 3 73° 58% - - 58° 100.4° 63.6° - - 921.0
6/20 10:20pm 70 1 G 3 73° 59% - - 58° 100.4° 63.6° - - 922.0
6/20 10:10pm 107 1 G 2 73° 59% - - 58° 100.4° 63.6° - - 922.0
6/20 10:00pm 136 2 G 3 74° 57% - - 58° 100.4° 63.6° - - 922.0
6/20 9:50pm 141 2 G 2 75° 56% - - 58° 100.4° 63.6° - - 921.0
6/20 9:40pm 163 1 G 2 76° 52% - - 58° 100.4° 63.6° - - 920.0
6/20 9:30pm 176 1 G 2 77° 50% - - 57° 100.4° 63.6° - - 919.0
6/20 9:20pm 194 1 G 2 78° 48% - - 57° 100.4° 63.6° - - 919.0
6/20 9:10pm 195 0 G 2 80° 43% - - 55° 100.4° 63.6° - - 917.0
6/20 9:00pm 347 0 G 1 81° 41% - - 55° 100.4° 63.6° - - 917.0
6/20 8:50pm 238 0 G 1 82° 41% - - 56° 100.4° 63.6° - - 917.0
6/20 8:40pm 22 1 G 2 83° 38% - - 55° 100.4° 63.6° - - 916.0
6/20 8:30pm 15 1 G 3 84° 35% - - 54° 100.4° 63.6° - - 915.0
6/20 8:20pm 61 1 G 3 85° 33% - - 53° 100.4° 63.6° - - 915.0
6/20 8:10pm 355 1 G 3 86° 32% - - 53° 100.4° 63.6° - - 914.0
6/20 8:00pm 25 3 G 4 87° 29% - - 51° 100.4° 63.6° - - 914.0
6/20 7:50pm 22 1 G 2 88° 28% - - 51° 100.4° 63.6° - - 914.0
6/20 7:40pm 341 2 G 3 89° 29% - - 53° 100.4° 63.6° - - 915.0
6/20 7:30pm 351 2 G 4 90° 27% - - 52° 100.4° 63.6° - - 914.0
6/20 7:20pm 329 2 G 3 91° 25% - - 50° 100.4° 63.6° - - 914.0
6/20 7:10pm 339 3 G 5 92° 25% - - 50° 100.4° 63.6° - - 914.0
6/20 7:00pm 327 3 G 5 92° 24% - - 51° 100.4° 63.6° - - 914.0
6/20 6:50pm 317 4 G 6 93° 23% - - 49° 100.4° 63.6° - - 913.0
6/20 6:40pm 317 5 G 7 93° 23% - - 49° 100.4° 63.6° - - 913.0
6/20 6:30pm 320 4 G 8 93° 23% - - 49° 100.4° 63.6° - - 913.0
6/20 6:20pm 319 4 G 8 93° 22% - - 49° 100.4° 63.6° - - 913.0
6/20 6:10pm 297 5 G 9 93° 22% - - 49° 100.4° 63.6° - - 913.0
6/20 6:00pm 302 5 G 10 93° 23% - - 50° 100.4° 63.6° - - 914.0